Regional Weather Roundup
Issued by NWS Boston, MA

Current Version | Previous Version | Text Only | Print | Product List | Glossary Off
Versions: 1 2 3 4 5 6 7 8 9 10 11 12 13 14 15 16 17 18 19 20 21 22 23 24 25 26 27 28 29 30 31 32 33 34 35 36 37 38 39 40 41 42 43 44 45 46 47 48 49 50
716 ASUS41 KBOX 211110 RWRBOX REGIONAL WEATHER ROUNDUP NATIONAL WEATHER SERVICE BOSTON/NORTON MA 700 AM EDT TUE AUG 21 2018 NOTE: "FAIR" INDICATES FEW OR NO CLOUDS BELOW 12,000 FEET WITH NO SIGNIFICANT WEATHER AND/OR OBSTRUCTIONS TO VISIBILITY. MAZALL-211200- EASTERN MASSACHUSETTS CITY SKY/WX TMP DP RH WIND PRES REMARKS BOSTON CLOUDY 67 62 84 N7 30.15R BEVERLY CLOUDY 63 62 97 N8 30.14S LAWRENCE CLOUDY 64 61 88 CALM 30.17R BEDFORD CLOUDY 62 60 93 CALM 30.14R BLUE HILL N/A 62 62 100 CALM 30.15R NORWOOD CLOUDY 66 63 90 N3 30.14R MARSHFIELD CLOUDY 68 64 88 VRB5 30.13R PLYMOUTH CLOUDY 67 64 90 NE6 30.13R TAUNTON CLOUDY 66 63 90 N3 30.13R NEW BEDFORD CLOUDY 66 66 100 N5 30.11R $$ MAZALL-211200- CAPE COD AND THE ISLANDS CITY SKY/WX TMP DP RH WIND PRES REMARKS FALMOUTH CLOUDY 66 64 94 NE10 30.12S HYANNIS PTSUNNY 68 64 87 NE7 30.10S CHATHAM CLOUDY 67 64 90 NE8 30.11F PROVINCETOWN CLOUDY 66 62 87 E8 30.13R NANTUCKET CLOUDY 65 65 100 NE15 30.09R MARTHAS VNYRD CLOUDY 67 66 97 NE9 30.10S $$ MAZALL-211200- CENTRAL AND WESTERN MASSACHUSETTS CITY SKY/WX TMP DP RH WIND PRES REMARKS WORCESTER CLOUDY 60 59 96 CALM 30.16S FITCHBURG CLOUDY 59 57 93 N3 30.17R ORANGE FOG 56 55 97 CALM 30.18R VSB 1/4 SPRINGFIELD PTCLDY 57 56 97 CALM 30.15R WESTFIELD CLOUDY 59 59 100 CALM 30.16R FOG NORTH ADAMS CLOUDY 60 55 83 E7 30.15R PITTSFIELD CLOUDY 60 57 89 CALM 30.15R $$ RIZALL-211200- RHODE ISLAND CITY SKY/WX TMP DP RH WIND PRES REMARKS PROVIDENCE CLOUDY 66 61 84 N6 30.14R NEWPORT CLOUDY 65 64 97 N3 30.13R BLOCK ISLAND CLOUDY 66 64 93 NE8 30.13R SMITHFIELD CLOUDY 62 61 96 N6 30.15R WESTERLY CLOUDY 66 64 93 N3 30.14R $$ CTZALL-211200- CONNECTICUT CITY SKY/WX TMP DP RH WIND PRES REMARKS BRADLEY INTL FOG 59 58 96 N3 30.15S VSB 1/2 HARTFORD MOCLDY 62 59 90 CALM 30.15R BRIDGEPORT FAIR 65 60 84 NE7 30.13R DANBURY CLOUDY 64 60 87 E3 30.15R GROTON MOCLDY 65 61 87 N6 30.13R NEW HAVEN MOCLDY 63 61 93 N8 30.14R CHESTER CLOUDY 63 61 94 CALM 30.15S MERIDEN CLOUDY 62 59 90 NW3 30.15R WILLIMANTIC CLOUDY 60 59 96 CALM 30.15R OXFORD CLOUDY 61 58 90 NE3 30.16R $$ MEZ002-015-021-024-NHZ003-005-008-011-012-014-VTZ005-008-211200- NORTHERN NEW ENGLAND CITY SKY/WX TMP DP RH WIND PRES REMARKS PORTLAND ME FOG 58 58 100 CALM 30.16R VSB 1/2 BANGOR ME FAIR 57 56 96 CALM 30.16S CONCORD NH FOG 56 55 97 CALM 30.17R VSB<1/4 MANCHESTER NH FOG 60 59 96 CALM 30.16R VSB 1/2 NASHUA NH FOG 57 57 100 NW7 30.18R VSB 3/4 PORTSMOUTH NH MOSUNNY 59 58 95 NW3 30.14R JAFFREY NH CLOUDY 54 54 100 CALM 30.19R FOG KEENE NH FOG N/A N/A N/A CALM 30.17R VSB 1/4 BURLINGTON VT FAIR 64 57 78 SE6 30.11S MT. WASHINGTON MOSUNNY 52 12 20 SE9 N/A $$ NYZ052-076-211200- EASTERN NEW YORK CITY SKY/WX TMP DP RH WIND PRES REMARKS ALBANY MOCLDY 66 60 81 SE5 30.12F NEW YORK CITY FAIR 69 61 75 E9 30.11S $$ ANZALL-211200- MARINE OBSERVATIONS STATION/POSITION TIME TEMP WIND PRES VSBY WAVE AIR SEA DIR/SP/G HT/PER (UTC) (F) (DEG/KT/KT) (MB) (MI) (FT/S) BOSTON BUOY NOT AVBL BUZZARDS BAY 1000 67 30/ 14/ 15 1019.5F NANTUCKET SOUND NOT AVBL MASS BAY-STELLWA 1004 66 68 40/ 12/ 12 1018.5F 1 7/8 4/ 8 ISLE OF SHOALS 1000 63 20/ 5/ 5 1020.3R S OF BLOCK IS 1043 70 N/A 3/ 8 $$ ......................KEY......................... SKY/WX - SKY CONDITION/PRESENT WEATHER TMP - TEMPERATURE IN FAHRENHEIT DWPT - DEWPOINT IN FAHRENHEIT RH - RELATIVE HUMIDITY IN PERCENT WIND - DIRECTION AND SPEED IN MPH PRES - MEAN SEA LEVEL PRESSURE IN INCHES OF HG WCI - WIND CHILL INDEX VSB - VISIBILITY IN MILES HX - HEAT INDEX TC - TEMPERATURE IN CELSIUS VRB - VARIABLE WIND DIRECTION N/A - NOT AVAILABLE

USA.gov is the U.S. government's official web portal to all federal, state and local government web resources and services.